Location: Grand Mazuras
(45.9128°N, 1.7636°E)
Time: 06:07:01
(UTC+00:00)

Cosmos 1844 Rocket - Pass Details

Date: 18 April 2021
Orbit: 825 x 844 km, 71.0° (Epoch: 05 May)

Event Time Altitude Azimuth Distance (km) Brightness Sun altitude
Exits shadow 23:39:27 24° 63° (ENE) 1,637 4.3 -32.8°
Drops below altitude 10° 23:42:06 10° 42° (NE) 2,435 5.6 -32.9°
Sets 23:44:43 0° 34° (NE) 3,374 6.5 -32.9°
